Other Public Products
Issued by NWS Charleston, SC

Current Version | Previous Version | Text Only | Print | Product List | Glossary Off
Versions: 1 2 3 4 5 6 7 8 9 10 11 12 13 14 15 16 17 18 19 20 21 22 23 24 25 26 27 28 29 30 31 32 33 34 35 36 37 38 39 40 41 42 43 44 45 46 47 48 49 50

457
FPUS82 KCHS 082127
OPUCHS

TEST...KCHS/KSAV Gateway Observations...TEST
National Weather Service Charleston SC
400 PM EST THU DEC 08 2016

NOTE: "fair" indicates few or no clouds below 12,000 feet with no
significant weather and/or obstructions to visibility.

SCZ050-WAZ558-NCZ071-TXZ119-213-PAZ071-DCZ001-FLZ074-172-MI076-
NYZ176-178-MAZ016-IL014-TNZ027-NJZ106-GAZ044-MD014-082200-
...Gateway Observations for Charleston International...

CITY           SKY/WX    TMP DP  RH WIND       PRES   REMARKS
Chas Airport   PTSUNNY   64  45  49 NW12      30.09R
Seattle        PTSUNNY   36  11  35 E20       29.98F WCI  25
Charlotte      CLOUDY    48  20  32 NW10G18   30.17R
Dallas DFW     CLOUDY    36  16  44 N16       30.60S WCI  26
Dallas Love    CLOUDY    36  15  42 N15G25    30.61F WCI  27
Philladelphia  MOCLDY    45  18  34 W14       29.97R
Wash National  MOCLDY    48  17  29 NW14G23   30.04R
Baltimore      MOCLDY    45  17  32 W15G23    30.00R
Miami          CLOUDY    78  72  81 E13       30.05R
Detroit        LGT SNOW  27  21  78 W17G25    30.15R FOG     WCI  14
Newark         CLOUDY    42  16  34 W17G24    29.91R
Laguardia      CLOUDY    44  18  35 W14G23    29.90R
J F K          CLOUDY    44  18  35 W15       29.91R
Boston Logan   MOCLDY    41  27  57 W10G21    29.80S
Ft. Lauderdale MOSUNNY   78  73  84 NE9       30.03R
Chicago O`Hare FLURRIES  21  13  71 W14G25    30.32R WCI   8
Chicago Midway FLURRIES  21  11  65 W20G25    30.33R WCI   6
Houston Bush   CLOUDY    47  33  58 N22       30.41R
Houston Hobby  CLOUDY    49  36  61 N24       30.38R
Nashville      PTSUNNY   38  13  35 NW8       30.41R WCI  32
Atlanta        CLOUDY    46  21  37 N21       30.26F

$$

GAZ044-118-TXZ119-213-NCZ071-DCZ001-MDZ014-506-PAZ021-071-NJZ106-
NYZ176-178-MAZ106-OHZ011-021-055-MIZ076-KYZ091-ILZ014-INZ047-
MNZ060-082200-
...Gateway Observations for Savannah International...

CITY           SKY/WX    TMP DP  RH WIND       PRES   REMARKS
Savannah Arpt  CLOUDY    63  39  41 NW15      30.13R
Atlanta        CLOUDY    46  21  37 N21       30.26F
Charlotte      CLOUDY    48  20  32 NW10G18   30.17R
Dallas DFW     CLOUDY    36  16  44 N16       30.60S WCI  26
Houston Bush   CLOUDY    47  33  58 N22       30.41R
Wash National  MOCLDY    48  17  29 NW14G23   30.04R
Wash Dulles    MOCLDY    44  16  32 NW17G28   30.04R
Baltimore      MOCLDY    45  17  32 W15G23    30.00R
Philadelphia   MOCLDY    45  18  34 W14       29.97R
Newark         CLOUDY    42  16  34 W17G24    29.91R
Laguardia      CLOUDY    44  18  35 W14G23    29.90R
J F K          CLOUDY    44  18  35 W15       29.91R
Boston         MOCLDY    41  27  57 W10G21    29.80S
Pittsburg      FLURRIES  28  16  60 W15G24    30.13R WCI  16
Akron          LGT SNOW  25  15  66 W16G26    30.14R WCI  12
Cleveland      CLOUDY    27  16  63 SW22G29   30.18R WCI  13
Cincinnati     MOSUNNY   29  17  61 NW14      30.31R WCI  18
Columbus         N/A     25  13  60 W17       30.29R WCI  12
Detroit        LGT SNOW  27  21  78 W17G25    30.15R FOG     WCI  14
Chicago O`Hare FLURRIES  21  13  71 W14G25    30.32R WCI   8
Minneapolis    FLURRIES  22  13  68 NW17      30.42R WCI   8
Indianapolis   FLURRIES  23  14  68 W17       30.36R WCI   9

$$




USA.gov is the U.S. government's official web portal to all federal, state and local government web resources and services.